TimeEDT,TemperatureF,Dew PointF,Humidity,Sea Level PressureIn,VisibilityMPH,Wind Direction,Wind SpeedMPH,Gust SpeedMPH,PrecipitationIn,Events,Conditions,WindDirDegrees,DateUTC
12:00 AM,51.8,46.4,82,29.84,10.0,NW,16.1,23.0,N/A,,Overcast,320,2012-10-28 04:00:00
12:52 AM,52.0,46.0,80,29.82,10.0,NW,16.1,-,N/A,,Overcast,320,2012-10-28 04:52:00
1:25 AM,51.8,44.6,76,29.82,10.0,NW,12.7,-,N/A,,Scattered Clouds,320,2012-10-28 05:25:00
1:52 AM,52.0,46.0,80,29.80,10.0,NNW,8.1,-,N/A,,Mostly Cloudy,330,2012-10-28 05:52:00
2:52 AM,51.1,45.0,80,29.79,10.0,NW,12.7,-,N/A,,Mostly Cloudy,310,2012-10-28 06:52:00
3:52 AM,50.0,45.0,83,29.78,10.0,NW,10.4,-,N/A,,Mostly Cloudy,310,2012-10-28 07:52:00
4:52 AM,50.0,45.0,83,29.78,10.0,NW,11.5,-,N/A,,Mostly Cloudy,320,2012-10-28 08:52:00
5:52 AM,51.1,45.0,80,29.78,10.0,NW,10.4,-,N/A,,Overcast,320,2012-10-28 09:52:00
6:52 AM,51.1,45.0,80,29.79,10.0,NW,11.5,18.4,N/A,,Overcast,310,2012-10-28 10:52:00
7:52 AM,51.1,45.0,80,29.80,10.0,WNW,15.0,19.6,0.00,,Mostly Cloudy,300,2012-10-28 11:52:00
8:52 AM,51.1,45.0,80,29.81,10.0,NW,10.4,-,0.00,,Mostly Cloudy,320,2012-10-28 12:52:00
9:52 AM,52.0,45.0,77,29.82,10.0,NW,16.1,-,N/A,,Overcast,320,2012-10-28 13:52:00
10:11 AM,51.8,44.6,76,29.83,10.0,NW,12.7,20.7,N/A,,Overcast,310,2012-10-28 14:11:00
10:52 AM,52.0,45.0,77,29.83,10.0,NW,13.8,-,0.00,,Overcast,310,2012-10-28 14:52:00
11:22 AM,53.6,44.6,72,29.82,10.0,NW,15.0,21.9,N/A,,Overcast,320,2012-10-28 15:22:00
11:42 AM,53.6,44.6,72,29.82,10.0,NW,12.7,20.7,N/A,,Overcast,310,2012-10-28 15:42:00
11:52 AM,53.1,44.1,71,29.83,10.0,NW,13.8,-,N/A,,Overcast,320,2012-10-28 15:52:00
12:52 PM,53.1,44.1,71,29.83,10.0,NW,18.4,24.2,N/A,,Overcast,310,2012-10-28 16:52:00
1:09 PM,53.6,44.6,72,29.82,10.0,NW,15.0,24.2,N/A,,Overcast,320,2012-10-28 17:09:00
1:28 PM,53.6,44.6,72,29.81,10.0,NW,19.6,27.6,N/A,,Overcast,320,2012-10-28 17:28:00
1:52 PM,55.0,43.0,64,29.80,10.0,NNW,23.0,29.9,N/A,,Overcast,330,2012-10-28 17:52:00
2:52 PM,55.0,43.0,64,29.80,10.0,NW,20.7,29.9,N/A,,Overcast,320,2012-10-28 18:52:00
3:52 PM,54.0,42.1,64,29.81,10.0,NW,23.0,32.2,N/A,,Overcast,320,2012-10-28 19:52:00
4:52 PM,52.0,42.1,69,29.81,10.0,NNW,19.6,26.5,N/A,,Mostly Cloudy,330,2012-10-28 20:52:00
5:52 PM,51.1,41.0,68,29.84,10.0,NNW,16.1,27.6,N/A,,Overcast,330,2012-10-28 21:52:00
6:52 PM,50.0,39.9,68,29.85,10.0,NNW,17.3,29.9,N/A,,Overcast,330,2012-10-28 22:52:00
7:52 PM,50.0,39.0,66,29.87,10.0,NNW,23.0,32.2,N/A,,Overcast,330,2012-10-28 23:52:00
8:52 PM,48.9,37.9,66,29.87,10.0,NNW,16.1,33.4,N/A,,Overcast,330,2012-10-29 00:52:00
9:52 PM,48.9,37.0,64,29.87,10.0,NNW,24.2,44.9,N/A,,Overcast,330,2012-10-29 01:52:00
10:52 PM,48.0,36.0,63,29.87,10.0,NNW,24.2,35.7,N/A,,Mostly Cloudy,330,2012-10-29 02:52:00
11:52 PM,48.0,36.0,63,29.89,10.0,NNW,23.0,34.5,N/A,,Mostly Cloudy,340,2012-10-29 03:52:00